Hourly Data Report for December 14, 2019

CARBERRY CS
MANITOBA
Current Station Operator: ECCC - MSC

49°54'20.900" N
99°21'26.800" W
383.50 m
5010547
71170
WZE

Download Data

Hourly Data (December 2019)
Hourly Data Report for December 14, 2019
TIME
LST
Temp Definition
°C
Dew Point Definition
°C
Rel Hum Definition
%
Precip. Amount Definition
mm

Wind Dir Definition
10's deg

Wind Spd Definition
km/h
Visibility Definition
km
Stn Press Definition
kPa
Hmdx Definition


Wind Chill Definition


Weather Definition


00:00 -17.8 -20.5 79 0.0 1 16   97.46   -27 LegendNANA
01:00 -18.8 -21.4 80 0.0 36 15   97.45   -28 LegendNANA
02:00 -19.6 -22.1 80 0.0 36 12   97.46   -28 LegendNANA
03:00 -22.3 -24.9 80 0.0 36 8   97.48   -29 LegendNANA
04:00 -25.9 -28.8 76 0.0 33 2   97.47   -28 LegendNANA
05:00 -28.8 -31.7 76 0.0 30 6   97.45   -35 LegendNANA
06:00 -26.3 -28.8 80 0.0 35 9   97.42   -34 LegendNANA
07:00 -29.6 -32.7 74 0.0 36 3   97.43   -33 LegendNANA
08:00 -31.6 -34.8 73 0.0 27 7   97.43   -39 LegendNANA
09:00 -31.5 -34.8 73 0.0 25 10   97.43   -41 LegendNANA
10:00 -29.8 -33.1 72 0.7 26 8   97.44   -38 LegendNANA
11:00 -24.1 -27.2 76 0.0 0 1   97.40   -25 LegendNANA
12:00 -21.5 -25.7 68 0.0 23 3   97.35   -24 LegendNANA
13:00 -21.1 -24.8 72 0.0 25 8   97.30   -28 LegendNANA
14:00 -21.3 -25.5 69 0.0 26 10   97.25   -29 LegendNANA
15:00 -21.2 -25.2 70 0.0 25 11   97.19   -29 LegendNANA
16:00 -22.4 -25.8 74 0.0 25 7   97.18   -28 LegendNANA
17:00 -23.8 -26.4 79 0.0 24 8   97.14   -31 LegendNANA
18:00 -24.8 -27.3 79 0.0 22 7   97.11   -31 LegendNANA
19:00 -25.4 -28.0 79 0.0 23 7   97.04   -32 LegendNANA
20:00 -26.2 -28.9 78 0.0 22 8   97.00   -34 LegendNANA
21:00 -26.4 -29.1 78 0.0 21 10   96.93   -35 LegendNANA
22:00 -26.5 -29.2 78 0.0 21 9   96.91   -34 LegendNANA
23:00 -26.9 -29.7 77 0.0 21 9   96.86   -35 LegendNANA

Notes on Data Quality.

Legend

  • E = Estimated
  • M = Missing
  • NA = Not Available*
  • [empty] = Indicates an unobserved value
Date modified: